Flag for Germany Weather past 2 weeks in Monheim am Rhein, North Rhine-Westphalia, Germany

Now
54 °F

Light rain. Low clouds.


Feels Like: 48 °F
Forecast: 48 / 52 °F
Wind: 21 mph from Southwest

Location: Duesseldorf

Current Time: Dec 22, 2014 at 9:56:26 PM

Latest Report: Dec 22, 2014 at 9:20 PM


Visibility: N/A

Pressure: 30.07 "Hg

Humidity: 82%

Dew point: 48 °F

Location of Monheim am RheinLocation

Historic Weather in Monheim am Rhein — Graph

°F

Monheim am Rhein temperature yesterday

Maximum temperature yesterday: 46 °F (at 7:50 PM)
Minimum temperature yesterday: 37 °F (at 6:50 AM)
Average temperature yesterday: 43 °F

Past Weeks' High & Low Weather Summary

 TemperatureHumidityPressure
High55 °F (Dec 18, 4:50 PM)100% (Dec 8, 5:20 AM)30.39 "Hg (Dec 8, 5:20 AM)
Low30 °F (Dec 14, 5:50 AM)66% (Dec 8, 12:50 PM)29.42 "Hg (Dec 12, 12:50 PM)
Average43 °F87%29.96 "Hg
* Reported Dec 7 8:20 PM — Dec 22 8:50 PM, Monheim am Rhein, Weather by CustomWeather, © 2014

Note: Actual official high and low records may vary slightly from our data, if they occured in-between our weather recording intervals... More about our weather records

Advertising

Monheim am Rhein weather history for previous 24 hours

 ConditionsComfort  
Time TempWeatherWind HumidityBarometerVisibility
8:50 PM
Dec 22
54 °FOvercast.20 mph82%30.07 "HgN/A
8:20 PM54 °FPassing clouds.23 mph82%30.07 "HgN/A
7:50 PM54 °FLight rain. Overcast.22 mph82%30.07 "HgN/A
7:20 PM54 °FOvercast.18 mph82%30.07 "HgN/A
6:50 PM54 °FOvercast.20 mph82%30.07 "HgN/A
6:20 PM54 °FLight rain. Overcast.18 mph82%30.07 "HgN/A
5:50 PM52 °FOvercast.18 mph88%30.07 "HgN/A
5:20 PM52 °FLight rain. Overcast.18 mph88%30.07 "HgN/A
4:50 PM52 °FOvercast.20 mph88%30.07 "HgN/A
4:20 PM52 °FLow clouds.20 mph88%30.07 "HgN/A
3:50 PM50 °FLight rain. Low clouds.18 mph94%30.07 "HgN/A
3:20 PM50 °FDrizzle. Low clouds.20 mph94%30.07 "HgN/A
2:50 PM50 °FDrizzle. Low clouds.20 mph88%30.07 "HgN/A
2:20 PM50 °FDrizzle. Low clouds.22 mph88%30.07 "HgN/A
1:50 PM50 °FLight rain. Partly sunny.22 mph82%30.07 "HgN/A
1:20 PM50 °FDrizzle. Partly sunny.24 mph82%30.07 "HgN/A
12:50 PM50 °FPartly sunny.21 mph82%30.07 "HgN/A
12:20 PM48 °FDrizzle. Low clouds.23 mph87%30.09 "HgN/A
11:50 AM48 °FOvercast.21 mph87%30.09 "HgN/A
11:20 AM48 °FLight rain. Overcast.25 mph87%30.09 "HgN/A
10:50 AM48 °FLight rain. Overcast.26 mph87%30.12 "HgN/A
10:20 AM48 °FPartly sunny.26 mph82%30.12 "HgN/A
9:50 AM48 °FPartly sunny.26 mph82%30.12 "HgN/A
9:20 AM48 °FLow clouds.23 mph82%30.12 "HgN/A
8:50 AM48 °FLow clouds.25 mph82%30.12 "HgN/A
8:20 AM48 °FPassing clouds.25 mph82%30.09 "HgN/A
7:50 AM48 °FPassing clouds.25 mph87%30.09 "HgN/A
7:20 AM48 °FLow clouds.23 mph87%30.09 "HgN/A
6:20 AM48 °FOvercast.28 mph87%30.09 "HgN/A
5:50 AM48 °FOvercast.28 mph82%30.12 "HgN/A
5:20 AM48 °FOvercast.26 mph82%30.12 "HgN/A
4:50 AM48 °FOvercast.26 mph82%30.12 "HgN/A
4:20 AM48 °FOvercast.25 mph82%30.12 "HgN/A
3:50 AM48 °FOvercast.23 mph82%30.15 "HgN/A
3:20 AM48 °FLight rain. Overcast.25 mph82%30.15 "HgN/A
2:50 AM48 °FOvercast.26 mph82%30.15 "HgN/A
2:20 AM48 °FOvercast.24 mph82%30.15 "HgN/A
1:20 AM48 °FOvercast.22 mph82%30.18 "HgN/A
12:50 AM48 °FOvercast.22 mph82%30.18 "HgN/A
12:20 AM46 °FOvercast.21 mph87%30.18 "HgN/A
11:50 PM
Dec 21
46 °FMostly cloudy.18 mph87%30.21 "HgN/A
11:20 PM46 °FMostly cloudy.18 mph87%30.21 "HgN/A
10:20 PM46 °FMostly cloudy.20 mph87%30.21 "HgN/A
9:50 PM46 °FDrizzle. Low clouds.21 mph87%30.21 "HgN/A
9:20 PM46 °FMostly cloudy.20 mph87%30.24 "HgN/A
Weather by CustomWeather, © 2014

See weather overviewHow to use our weather pages